Regional Weather Roundup
Issued by NWS Wakefield, VA

Home | Current Version | Previous Version | Graphics & Text | Print | Product List | Glossary On
Versions: 1 2 3 4 5 6 7 8 9 10 11 12 13 14 15 16 17 18 19 20 21 22 23 24 25 26 27 28 29 30 31 32 33 34 35 36 37 38 39 40 41 42 43 44 45 46 47 48 49 50
000
ASUS41 KAKQ 312210
RWRAKQ

REGIONAL WEATHER ROUNDUP
NATIONAL WEATHER SERVICE WAKEFIELD VA
600 PM EDT THU JUL 31 2014

Note: "fair" indicates few or no clouds below 12,000 feet with no
significant weather and/or obstructions to visibility. * = Denotes
station may not report precipitation (e.g., rain,snow,etc.),
thunder or fog.

VAZ042-051-052>054-056-312300-
NORTHERN VIRGINIA

CITY           SKY/WX    TMP DP  RH WIND       PRES   REMARKS
WASH NATIONAL  PTSUNNY   86  61  42 S8        30.08S
DULLES         PTSUNNY   85  53  33 SW8       30.08S
FORT BELVOIR   PTSUNNY   84  62  47 VRB5      30.09S
QUANTICO       PTSUNNY   84  65  52 S8        30.09S
FREDERICKSBRG* PTSUNNY   85  64  50 S10       30.08S
STAFFORD*      PTSUNNY   85  60  42 S5        30.13S
WARRENTON      PTSUNNY   85  67  56 S5        30.09R
CULPEPER*      PTSUNNY  N/A N/A N/A SW6       30.09R
MANASSAS*      PTSUNNY   84  61  45 S8        30.08
LEESBURG*      MOSUNNY   86  61  42 SW8       30.09S
WINCHESTER     PTSUNNY   82  55  39 SW8       30.10R
$$

VAZ048-049-060>072-079>083-312300-
CENTRAL AND SOUTH CENTRAL VIRGINIA...AND NORTH CENTRAL NORTH CAROLINA

CITY           SKY/WX    TMP DP  RH WIND       PRES   REMARKS
RICHMOND       CLOUDY    84  60  44 SW7       30.10F
CHESTERFIELD*  CLOUDY    82  61  47 S7        30.13S
HANOVER        CLOUDY    82  62  50 S7        30.12S
TAPPAHANNOCK*  CLOUDY    81  63  55 CALM      30.12S
CHARLOTTSVILLE PTSUNNY   83  58  42 S13       30.10R
ORANGE*        PTSUNNY   82  63  51 SE5       30.11R
LOUISA*        PTSUNNY   81  64  57 S5        30.10S
FARMVILLE*     CLOUDY    82  64  54 S6        30.10R
SOUTH HILL*    CLOUDY    79  72  78 CALM      30.18S
ROANOKE RAPIDS CLOUDY    79  68  69 CALM      30.12S
RALEIGH        CLOUDY    80  65  59 SE5       30.12S
$$

VAZ088>098-312300-
SOUTHEAST VIRGINIA

CITY           SKY/WX    TMP DP  RH WIND       PRES   REMARKS
NORFOLK        CLOUDY    82  63  52 S6        30.12R
VIRGINIA BEACH PTSUNNY   79  64  60 SE10      30.12R
NORFOLK NAVAL  CLOUDY    83  64  52 SE5       30.13S
WEST POINT*    CLOUDY    85  62  46 S5        30.13S
NEWPORT NEWS   CLOUDY    85  61  44 SW8       30.12S
LANGLEY AFB    CLOUDY    82  66  58 E8        30.11S
FORT EUSTIS    CLOUDY    82  66  59 SW5       30.10S
WILLIAMSBURG*  CLOUDY    84  66  54 S7        30.12S
FRANKLIN*      CLOUDY    82  64  54 S7        30.12S
WAKEFIELD      CLOUDY    81  68  64 CALM      30.12S
$$

VAZ020-022-025-037-045-312300-
WESTERN AND SOUTHWEST VIRGINIA

CITY           SKY/WX    TMP DP  RH WIND       PRES   REMARKS
STAUNTON*      PTSUNNY   82  49  31 SW9       30.12S
HOT SPRINGS VA PTSUNNY   67  55  63 SE6       30.26S
LYNCHBURG      CLOUDY    78  65  63 S8        30.14S
DANVILLE       CLOUDY    79  65  62 VRB3      30.13R
MARTINSVILLE   RAIN      68  66  95 CALM      30.18S
ROANOKE        PTSUNNY   78  61  55 S13       30.14S
BLACKSBURG     PTSUNNY   75  64  69 S8          N/A
DUBLIN*        CLOUDY    72  63  72 SW7       30.19R
MARION*        CLOUDY    69  62  78 NW3       30.21S
HILLSVILLE*    CLOUDY    68  61  78 S3        30.21S
RICHLANDS*     RAIN      70  61  73 SE6       30.18S
WISE*          MOSUNNY   73  54  49 S5        30.18S
ABINGDON*      PTSUNNY   76  65  69 CALM      30.16S
$$

MDZ021>025-VAZ099-100-312300-
SOUTHERN MARYLAND AND THE DELMARVA PENINSULA

CITY           SKY/WX    TMP DP  RH WIND       PRES   REMARKS
PATUXENT RIVER CLOUDY    82  63  52 S8        30.10S
BAY BRIDGE APT   N/A     81  63  54 S10       30.09S
LEONARDTOWN    CLOUDY    81  61  50 S6        30.12S
DOVER          MOSUNNY   82  64  54 S10       30.08F
GEORGETOWN     PTSUNNY   82  62  50 S9        30.11S
EASTON         MOSUNNY   84  64  51 SW9       30.13S
CAMBRIDGE      CLOUDY    82  64  54 S7        30.10S
SALISBURY      CLOUDY    83  62  49 S7        30.12R
OCEAN CITY     CLOUDY    77  68  73 S8        30.12S
WALLOPS ISLAND CLOUDY    79  68  69 S12       30.13S
ACCOMACK*        N/A     79  64  61 S6        30.12S
$$

NCZ012>017-030>032-312300-
EASTERN NORTH CAROLINA

CITY           SKY/WX    TMP DP  RH WIND       PRES   REMARKS
ELIZABETH CITY CLOUDY    79  63  57 SE8       30.12S
AHOSKIE*       CLOUDY    79  69  70 CALM      30.12F
EDENTON*       CLOUDY    80  66  63 E5        30.12S
CURRITUCK*     CLOUDY    81  60  49 CALM      30.14R
KILL DEVIL HLS CLOUDY    78  63  60 E8        30.12F
MANTEO         NOT AVBL
CAPE HATTERAS  MOSUNNY   83  63  50 E9        30.13S
GOLDSBORO      CLOUDY    83  70  64 E7        30.09R
WASHINGTON     CLOUDY    80  66  63 SE6       30.12S
GREENVILLE     CLOUDY    82  66  57 SE7       30.13S
NEW BERN       CLOUDY    82  63  52 E8        30.13R
WILMINGTON     CLOUDY    82  69  64 E9G17     30.09S
$$

VAZ048-312300-
ELSEWHERE

CITY           SKY/WX    TMP DP  RH WIND       PRES   REMARKS
HARRISBURG PA  PTSUNNY   81  60  48 CALM      30.07S
BALTIMORE      PTSUNNY   84  61  45 S7        30.07S
ANNAPOLIS      PTSUNNY   80  65  59 S13G21    30.08S
ANDREWS AFB    PTSUNNY   84  59  42 SW10      30.09R
WILMINGTON DE  PTSUNNY   83  62  49 S8        30.09F
PHILADELPHIA   MOSUNNY   85  58  39 SW12      30.08F
WILDWOOD NJ*   MOSUNNY   79  64  61 S14       30.13S
ATLANTIC CITY  MOSUNNY   78  64  61 S15       30.11S
HENDERSON NC   CLOUDY    77  65  66 CALM      30.13S
GREENSBORO     CLOUDY    77  63  61 CALM      30.14R
ROCKY MOUNT    CLOUDY    81  67  62 E3        30.11S
FAYETTEVILLE   CLOUDY    83  66  56 E6        30.09R
CHARLOTTE      CLOUDY    74  69  85 N9        30.12S
$$

VAZ100-312300-
MARINE

STATION/POSITION TIME  TEMP    WIND        PRES    WAVE   SWELL
                       AIR SEA DIR/SP/G            HT/PER HT/PER
                 (UTC) (F)     (DEG/KT/KT) (MB)    (FT/S) (FT/S)
44066 TX TWR #4  2200   75 76  200/ 10/ 12 1020.6F   3/ 7   3/ 7
CAPE MAY NJ      2200   74 78  160/ 12/ 15 1019.0F
LEWES DE         2200   79 72  170/  6/  8 1019.0S
15NM E FENWICK I 2200   76 74              1020.0F   3/ 8
OCEAN-CITY-INLET 2200   74 74  210/ 12/ 14 1019.6R
WACHAPREAGUE VA  2200   78 82  190/  8/ 12 1019.9S
THOMAS POINT MD  2200   79 78  160/ 17/ 19 1019.1S
GOOSES REEF MD   2200   80     190/ 14/ 17 1019.3S
COVE POINT MD    2200   80     210/ 13/ 16 1019.1S
SOLOMONS ISLAND  2200      80                N/A
BISHOPS HEAD MD  2200   78 80  190/ 13/ 15 1019.1R
PINEY POINT MD   2200          220/  9/  9   N/A
POTOMAC MD       2200   79     180/  8/ 10 1018.6S
CAMBRIDGE MD     2200   81 78  170/  7/ 10 1019.1S
LEWISETTA VA     2200   80 79  190/  6/  7 1019.3R
RAPPAHANNOCK LGT 2200          170/  9/ 10 1020.3R
STINGRAY PT      2200   79     180/ 12/ 14 1020.3S
YORK RVR RNG VA  2200   78     150/ 10/ 12 1019.3R
YORKTOWN VA      2200   81 79  190/  5/  6 1019.5R
JAMESTOWN VA     2200   80     210/  4/  6   N/A
DOMINION TERM VA 2200   82      70/  2/  3 1019.9S
KIPTOPEKE VA     2200      80  160/ 10/ 11   N/A
CHES BAY BRIDGE  2200   79 78  100/  9/ 11 1019.4S
CAPE HENRY VA    2200   78     150/ 11/ 13 1018.9S
WILLOUBY STN VA  2200           30/  2/  2 1019.2S
S CRANEY ISL VA  2200          190/  5/  6 1019.8S
CAPE HENRY BUOY  2200      77                N/A     3/ 8
1ST LANDING BUOY 2200   78     140/ 12/ 14 1019.6S
CAPE CHARLES BUO 2200      76                N/A     2/ 8
OFFSHORE WE BUOY 2200      78                N/A     2/ 7
64NM E OF VA BCH 2200   77 80   80/  6/  8 1020.6R   2/ 7   2/ 7
DUCK PIER NC     2200   78 78  100/  9/ 10 1019.5F
44056 DUCK FRF   2200                        N/A     2/ 7
OREGON INLET NC  2200   78 78   70/  8/ 11 1020.4F
HATTERAS NC      2200   80 80   90/  9/ 12 1020.7R
DIAMOND SHLS NC  2200          VRB 12/ 16  1019.8S   3/ 6   3/ 6
CAPE LOOKOUT NC  2100   80      90/ 12/ 13 1019.7R
$$


USA.gov is the U.S. government's official web portal to all federal, state and local government web resources and services.